Regional Weather Roundup
Issued by NWS

Home | Current Version | Previous Version | Text Only | Print | Product List | Glossary On
Versions: 1 2 3 4 5 6 7 8 9 10 11 12 13 14 15 16 17 18 19 20 21 22 23 24 25 26 27 28 29 30 31 32 33 34 35 36 37 38 39 40 41 42 43 44 45 46 47 48 49 50
284
ASUS44 KFWD 260010
RWRTX
NORTH TEXAS HOURLY WEATHER ROUNDUP
NATIONAL WEATHER SERVICE FORT WORTH TX
600 PM CST SUN FEB 25 2018

NOTE: "FAIR" INDICATES FEW OR NO CLOUDS BELOW 12,000 FEET WITH NO
SIGNIFICANT WEATHER AND/OR OBSTRUCTIONS TO VISIBILITY.

TXZ118-119-260100-
DALLAS/FORT WORTH METROPLEX

CITY           SKY/WX    TMP DP  RH WIND       PRES   REMARKS
DFW AIRPORT    FAIR      65  46  50 SE8       29.96S
6HR MIN TEMP:  63; 6HR MAX TEMP:  69;

DALLAS LOVE    FAIR      64  48  56 S12       29.98R
6HR MIN TEMP:  60; 6HR MAX TEMP:  67;

FTW MEACHAM    FAIR      65  45  48 SE9       29.96R
6HR MIN TEMP:  64; 6HR MAX TEMP:  69;

DAL-EXECUTIVE  FAIR      62  47  57 SE9       29.98R
6HR MIN TEMP:  61; 6HR MAX TEMP:  66;

FTW-ALLIANCE   FAIR      64  40  41 S8        29.97R
6HR MIN TEMP:  64; 6HR MAX TEMP:  69;

FTW-NAS-JRB    FAIR      66  41  40 SE7       29.96S
6HR MIN TEMP:  63; 6HR MAX TEMP:  69;

FTW-SPINKS     CLEAR     64  45  48 SE7       29.99R
ARLINGTON      FAIR      62  46  55 SE12      29.98R
6HR MIN TEMP:  59; 6HR MAX TEMP:  66;

GRAND PRAIRIE  CLEAR     63  45  51 SE8       30.00R
ADDISON          N/A     64  43  45 S7        29.98S
MESQUITE       CLEAR     61  46  59 SE6       30.00R
LANCASTER      FAIR      61  47  59 E5        30.00R
6HR MIN TEMP:  59; 6HR MAX TEMP:  64;

$$

TXZ091>094-102>105-117-120-121-131>134-260100-
NORTH CENTRAL TEXAS

CITY           SKY/WX    TMP DP  RH WIND       PRES   REMARKS
SHRMAN/DENISON FAIR      61  42  49 SE8       30.00R
6HR MIN TEMP:  61; 6HR MAX TEMP:  65;

GAINESVILLE    FAIR      61  37  40 S3        30.00R
6HR MIN TEMP:  58; 6HR MAX TEMP:  65;

BOWIE          FAIR      64  34  32 CALM      29.97R
6HR MIN TEMP:  58; 6HR MAX TEMP:  66;

BRIDGEPORT     FAIR      67  34  30 S5        29.97R
6HR MIN TEMP:  59; 6HR MAX TEMP:  68;

DECATUR        FAIR      64  37  36 SE8       29.96R
6HR MIN TEMP:  61; 6HR MAX TEMP:  67;

DENTON         FAIR      63  44  50 S9        29.97R
6HR MIN TEMP:  60; 6HR MAX TEMP:  67;

MCKINNEY       FAIR      62  47  57 SE6       29.98S
6HR MIN TEMP:  57; 6HR MAX TEMP:  65;

BONHAM         FAIR      60  46  59 SE6       30.00R
6HR MIN TEMP:  56; 6HR MAX TEMP:  64;

GREENVILLE     FAIR      61  48  63 SE3       30.00R
ROCKWALL       FAIR      62  49  63 S5        30.00R
6HR MIN TEMP:  61; 6HR MAX TEMP:  65;

TERRELL        FAIR      62  45  53 SE7       30.00R
6HR MIN TEMP:  62; 6HR MAX TEMP:  65;

CLEBURNE       FAIR      63  43  48 SE7       29.99S
GRANBURY       FAIR      67  41  39 SE9       29.98R
6HR MIN TEMP:  63; 6HR MAX TEMP:  70;

$$

TXZ083>090-098>101-113>116-127>130-139>142-154-155-260100-
WESTERN NORTH TEXAS

CITY           SKY/WX    TMP DP  RH WIND       PRES   REMARKS
WICHITA FALLS  FAIR      63  31  30 S8        29.94R
6HR MIN TEMP:  58; 6HR MAX TEMP:  67;

WF-KICKAPOO    FAIR      65  37  35 S7        29.97R
6HR MIN TEMP:  57; 6HR MAX TEMP:  67;

VERNON         FAIR      67  17  15 SW3       29.95R
6HR MIN TEMP:  32; 6HR MAX TEMP:  70;

ABILENE        FAIR      69  14  12 W10       29.94R
6HR MIN TEMP:  63; 6HR MAX TEMP:  72;

ABILENE-DYESS  FAIR      69  25  19 NW12      29.94R
6HR MIN TEMP:  65; 6HR MAX TEMP:  73;

GRAHAM           N/A     67  34  29 E6        29.93R
6HR MIN TEMP:  61; 6HR MAX TEMP:  71;

BRECKENRIDGE   FAIR      70  26  19 S7        29.93R HAZE
6HR MIN TEMP:  62; 6HR MAX TEMP:  73;

CISCO          FAIR      70  23  17 W6        29.95R
EASTLAND       FAIR      67  34  29 S7        29.95R
6HR MIN TEMP:  60; 6HR MAX TEMP:  71;

RANGER         FAIR      68  32  26 SW5       29.96R
6HR MIN TEMP:  62; 6HR MAX TEMP:  70;

MINERAL WELLS  FAIR      64  38  38 SE12      29.94R
6HR MIN TEMP:  60; 6HR MAX TEMP:  69;

STEPHENVILLE   FAIR      68  36  30 SE3       29.99R
6HR MIN TEMP:  63; 6HR MAX TEMP:  70;

COMANCHE       FAIR      70  34  26 SW5       29.97R
6HR MIN TEMP:  61; 6HR MAX TEMP:  72;

COLEMAN        FAIR      70  32  24 SW3       29.96R
6HR MIN TEMP:  63; 6HR MAX TEMP:  73;

$$

TXZ143>147-156>162-174-175-260100-
CENTRAL TEXAS

CITY           SKY/WX    TMP DP  RH WIND       PRES   REMARKS
WACO           FAIR      62  48  60 S5        29.99R
6HR MIN TEMP:  58; 6HR MAX TEMP:  65;

WACO-TSTC      CLEAR     63  50  63 SE3       29.98S
WACO-MCGREGOR  FAIR      62  51  67 SE3       30.00R
6HR MIN TEMP:  58; 6HR MAX TEMP:  64;

HILLSBORO      FAIR      63  48  58 SE6       29.98S
6HR MIN TEMP:  59; 6HR MAX TEMP:  65; 6HR PCP:  0.01;

CORSICANA      FAIR      57  51  80 SE8       30.01R
6HR MIN TEMP:  56; 6HR MAX TEMP:  62;

MEXIA          FAIR      57  48  70 E3        29.99R
6HR MIN TEMP:  55; 6HR MAX TEMP:  60;

HEARNE         CLOUDY    54  54 100 NE6       30.00S
6HR MIN TEMP:  53; 6HR MAX TEMP:  58; 6HR PCP:  0.50;

CAMERON        CLOUDY    55  52  88 CALM      30.00R
6HR MIN TEMP:  55; 6HR MAX TEMP:  58; 6HR PCP:  0.01;

TEMPLE           N/A     61  52  72 E5        30.00R
6HR MIN TEMP:  57; 6HR MAX TEMP:  63;

KILLEEN        FAIR      62  48  61 E5        29.98R
6HR MIN TEMP:  57; 6HR MAX TEMP:  64;

KILLEEN-SKYLRK FAIR      63  50  62 S3        29.99R
6HR MIN TEMP:  58; 6HR MAX TEMP:  66;

GATESVILLE     FAIR      63  48  59 CALM      30.00S
HAMILTON       FAIR      65  43  46 SE8       29.99R
6HR MIN TEMP:  62; 6HR MAX TEMP:  69;

LAMPASAS       FAIR      64  46  52 SE7       29.98R
6HR MIN TEMP:  60; 6HR MAX TEMP:  68;

$$

TXZ095>097-106>112-122>126-135>138-148>153-164>167-260100-
EAST TEXAS

CITY           SKY/WX    TMP DP  RH WIND       PRES   REMARKS
PARIS          FAIR      56  49  77 E7        30.02R
6HR MIN TEMP:  55; 6HR MAX TEMP:  61;

SULPHUR SPRNGS FAIR      59  47  64 E8        30.03R
6HR MIN TEMP:  59; 6HR MAX TEMP:  64;

MOUNT PLEASANT FAIR      56  46  70 SE6       30.05R
6HR MIN TEMP:  56; 6HR MAX TEMP:  61;

GILMER         CLOUDY    53  46  77 E3        30.03R
6HR MIN TEMP:  53; 6HR MAX TEMP:  58;

MINEOLA        MOCLDY    57  46  67 SE3       30.02R
TYLER          MOCLDY    55  48  77 E6        30.01R
6HR MIN TEMP:  55; 6HR MAX TEMP:  60;

LONGVIEW       CLOUDY    53  51  93 E6        30.01F
6HR MIN TEMP:  53; 6HR MAX TEMP:  56; 6HR PCP: TRACE;

MARSHALL       CLOUDY    51  48  89 CALM      30.04S
6HR MIN TEMP:  50; 6HR MAX TEMP:  55; 6HR PCP:  0.01;

ATHENS         FAIR      52  45  76 E5        29.99S
PALESTINE      CLOUDY    54  51  88 E5        30.01S
JACKSONVILLE   CLOUDY    50  50 100 NE7       30.02F
HENDERSON      CLOUDY    51  48  90 E3        30.03S
6HR MIN TEMP:  50; 6HR MAX TEMP:  54;

CENTER         RAIN      49  48  95 NW7       30.02R
6HR MIN TEMP:  48; 6HR MAX TEMP:  50; 6HR PCP:  0.71;

NACOGDOCHES    CLOUDY    50  49  96 N6        30.01R
6HR MIN TEMP:  49; 6HR MAX TEMP:  52; 6HR PCP:  0.50;

LUFKIN         CLOUDY    52  52 100 N6        30.00R
6HR MIN TEMP:  51; 6HR MAX TEMP:  53; 6HR PCP:  1.12;

$$

SUPPLEMENTAL OBSERVATIONS (NWS FORT WORTH AREA)

CITY           SKY/WX    TMP DP  RH WIND       PRES   REMARKS
CADDO GRASSLND   N/A     59  46  63 E3          N/A
LBJ GRASSLAND    N/A     64  36  34 SE6         N/A
POSSUM KINGDOM   N/A     68  34  28 SE5         N/A
GRANBURY         N/A     66  41  39 SE9         N/A



USA.gov is the U.S. government's official web portal to all federal, state and local government web resources and services.